[[[{"header":{"parameterUnit":"kt","parameterCategory":2,"dx":1,"dy":1,"la1":30.253999710083008,"la2":30.299108505249023,"lo1":-89.0895004272461,"lo2":-89.04439544677734,"nx":28,"ny":28,"refTime":"2022-11-01T21:00:00:Z","depth":0,"parameterNumber":1,"parameterNumberName":"U-component_of_WINDS"},"data":[-3.7218,-3.7158,-3.7113,-3.7025,-3.6969,-3.6902,-3.6863,-3.6809,-3.6754,-3.667,-3.6614,-3.6561,-3.6488,-3.6411,-3.6349,-3.6327,-3.6305,-3.6321,-3.6292,-3.6263,-3.6256,-3.6249,-3.626,-3.6316,-3.6316,-3.633,-3.633,-3.633,-3.7214,-3.7158,-3.7096,-3.7005,-3.6953,-3.6912,-3.6836,-3.6796,-3.6736,-3.6666,-3.6606,-3.6528,-3.646,-3.6378,-3.6305,-3.6279,-3.6255,-3.6263,-3.6265,-3.6255,-3.6221,-3.6233,-3.6285,-3.6285,-3.6285,-3.6285,-3.6285,-3.6285,-3.7193,-3.7158,-3.7074,-3.7006,-3.6947,-3.6886,-3.6845,-3.6779,-3.6718,-3.6633,-3.6587,-3.6518,-3.6439,-3.6324,-3.6274,-3.6221,-3.6202,-3.6196,-3.6194,-3.6195,-3.6203,-3.6198,-3.6205,-3.6205,-3.6204,-3.6204,-3.6204,0,-3.7163,-3.7127,-3.7061,-3.6983,-3.693,-3.6864,-3.6796,-3.6769,-3.667,-3.6623,-3.6552,-3.6502,-3.6406,-3.6334,-3.6252,-3.6198,-3.6149,-3.6137,-3.6132,-3.6155,-3.6189,-3.6174,-3.6126,-3.6136,-3.6135,-3.6135,-3.6134,-3.6134,-3.7141,-3.7103,-3.6989,-3.695,-3.6899,-3.6836,-3.6789,-3.6704,-3.6658,-3.6561,-3.6534,-3.6459,-3.6394,-3.6287,-3.6208,-3.6135,-3.6109,-3.612,-3.6097,-3.6124,-3.6113,-3.6117,-3.6115,-3.6125,-3.6127,-3.6127,-3.6128,0,-3.7134,-3.7052,-3.6976,-3.6864,-3.6835,-3.6801,-3.6705,-3.6666,-3.6603,-3.654,-3.652,-3.6421,-3.6351,-3.6268,-3.617,-3.6129,-3.6079,-3.6054,-3.6108,-3.6099,-3.6103,-3.6105,-3.6119,-3.6118,-3.6057,-3.6057,-3.6058,0,-3.7082,-3.7034,-3.6915,-3.6874,-3.6821,-3.6733,-3.6682,-3.6621,-3.6546,-3.6495,-3.6423,-3.6377,-3.6276,-3.622,-3.6158,-3.6101,-3.6081,-3.6047,-3.6032,-3.6054,-3.6059,-3.6028,-3.6026,-3.5993,-3.5993,-3.5993,-3.5993,0,-3.708,-3.6956,-3.689,-3.6849,-3.6721,-3.6693,-3.6639,-3.6552,-3.6505,-3.643,-3.64,-3.6319,-3.6276,-3.6216,-3.6138,-3.6127,-3.6064,-3.6032,-3.603,-3.6032,-3.6019,-3.6021,-3.6055,-3.5993,-3.5993,-3.5993,-3.5993,0,-3.7023,-3.6948,-3.6863,-3.6756,-3.6726,-3.6682,-3.6596,-3.6538,-3.6452,-3.6409,-3.6349,-3.6289,-3.6228,-3.6204,-3.612,-3.6128,-3.609,-3.605,-3.6049,-3.6038,-3.6013,-3.6046,-3.6085,-3.6087,-3.6031,-3.6031,-3.6031,0,-3.7046,-3.6935,-3.6857,-3.6777,-3.6714,-3.6636,-3.6586,-3.6509,-3.6447,-3.6386,-3.6318,-3.6248,-3.6211,-3.6177,-3.6147,-3.6073,-3.6063,-3.6072,-3.599,-3.5988,-3.6019,-3.6053,-3.608,-3.6086,-3.6034,-3.6034,-3.6034,0,-3.7051,-3.689,-3.6881,-3.683,-3.671,-3.6655,-3.6597,-3.6506,-3.647,-3.6389,-3.6339,-3.6236,-3.6206,-3.6148,-3.6089,-3.6061,-3.6068,-3.6031,-3.6027,-3.6043,-3.6026,-3.6054,-3.6055,-3.6035,-3.6034,-3.6034,-3.6036,0,-3.699,-3.6921,-3.6891,-3.6774,-3.6718,-3.666,-3.6565,-3.6519,-3.6467,-3.6401,-3.6324,-3.6233,-3.614,-3.6116,-3.6063,-3.6026,-3.6018,-3.5984,-3.5953,-3.5976,-3.5974,-3.5973,-3.5964,-3.5962,-3.5961,-3.596,0,0,-3.7033,-3.6929,-3.684,-3.6776,-3.6723,-3.6638,-3.6586,-3.6524,-3.6399,-3.6365,-3.6347,-3.6188,-3.6114,-3.603,-3.603,-3.599,-3.5976,-3.5969,-3.5965,-3.5966,-3.5966,-3.5967,-3.5967,-3.5958,-3.5957,-3.5957,-3.5957,0,-3.699,-3.6914,-3.6861,-3.6792,-3.6686,-3.6617,-3.6605,-3.6484,-3.6438,-3.6358,-3.6288,-3.623,-3.6101,-3.6034,-3.5983,-3.5978,-3.5928,-3.5956,-3.5986,-3.5955,-3.5958,-3.596,-3.5961,-3.5963,-3.5953,-3.5954,-3.5954,0,-3.6978,-3.6889,-3.6851,-3.6721,-3.665,-3.6584,-3.6529,-3.646,-3.6411,-3.6317,-3.6238,-3.6175,-3.6074,-3.6005,-3.5969,-3.5951,-3.5891,-3.589,-3.5895,-3.5889,-3.5854,-3.5858,-3.5861,-3.5822,-3.5822,-3.5822,0,0,-3.6954,-3.6886,-3.6759,-3.6704,-3.6664,-3.6558,-3.6512,-3.6453,-3.6363,-3.6328,-3.6243,-3.6159,-3.6084,-3.6037,-3.596,-3.5897,-3.587,-3.5878,-3.5884,-3.5889,-3.5886,-3.5853,-3.5856,-3.5822,-3.5822,-3.5822,0,0,-3.6941,-3.6792,-3.6754,-3.6677,-3.6594,-3.6465,-3.6435,-3.6386,-3.6306,-3.6301,-3.6199,-3.6171,-3.6104,-3.6042,-3.6052,-3.5948,-3.5918,-3.5914,-3.599,-3.5996,-3.6002,-3.6018,-3.598,0,0,0,0,0,-3.6845,-3.6811,-3.6778,-3.675,-3.6582,-3.6484,-3.6462,-3.6375,-3.6358,-3.6338,-3.6259,-3.6206,-3.6027,-3.6033,-3.6007,-3.5997,-3.582,-3.582,-3.5821,-3.5903,-3.591,-3.5917,0,0,0,0,0,0,-3.6833,-3.6799,-3.6779,-3.6649,-3.661,-3.6484,-3.6436,-3.6411,-3.6358,-3.6349,-3.6224,-3.6202,-3.6127,-3.604,-3.6018,-3.6011,-3.5987,-3.582,-3.582,-3.5821,-3.5905,-3.5912,-3.5917,0,0,0,0,0,-3.6824,-3.6796,-3.6548,-3.6649,-3.6615,-3.6493,-3.6436,-3.6415,-3.6372,-3.6249,-3.6226,-3.6312,-3.6129,-3.6105,-3.6027,-3.6023,-3.6001,-3.5994,-3.582,-3.582,-3.5821,-3.5908,0,0,0,0,0,0,-3.6816,-3.6777,-3.6539,-3.6526,-3.6654,-3.6498,-3.6471,-3.6419,-3.6273,-3.6251,-3.6333,-3.6328,-3.613,-3.6111,-3.6093,-3.6032,-3.6013,-3.6005,-3.6,-3.582,-3.5821,-3.5821,0,0,0,0,0,0,-3.6791,-3.6766,-3.6533,-3.6544,-3.6531,-3.6504,-3.6479,-3.6399,-3.6273,-3.6365,-3.6356,-3.6332,-3.6158,-3.6116,-3.6101,-3.5979,-3.6022,-3.6015,-3.6009,-3.6006,-3.582,-3.5821,0,0,0,0,0,0,-3.6779,-3.6757,-3.6546,-3.6537,-3.6525,-3.6369,-3.6431,-3.6263,-3.6282,-3.6373,-3.6282,-3.6281,-3.6164,-3.6147,-3.6107,-3.5992,-3.5982,-3.6022,-3.6017,-3.6013,-3.6011,0,0,0,0,0,0,0,-3.6769,-3.6932,-3.6619,-3.6531,-3.6521,-3.6403,-3.6399,-3.6395,-3.6282,-3.6282,-3.6282,-3.6282,-3.6065,-3.6057,-3.6049,-3.6002,0,0,-3.6023,-3.6019,0,0,0,0,0,0,0,0,-3.6939,-3.6934,-3.6618,-3.6616,-3.6613,-3.6402,-3.6399,-3.6396,-3.6282,-3.6282,-3.6282,-3.6282,-3.6063,-3.6056,-3.605,0,0,0,0,0,0,0,0,0,0,0,0,0,0,0,-3.6618,-3.6616,0,-3.6402,-3.6399,-3.6397,-3.6282,-3.6282,-3.6282,-3.6282,-3.6061,-3.6056,-3.605,0,0,0,0,0,0,0,0,0,0,0,0,0,0,0,0,0,0,0,0,0,0,0,0,0,0,0,0,0,0,0,0,0,0,0,0,0,0,0,0,0,0,0,0,0,0,0,0,0,0,0,0,0,0,0,0,0,0,0,0,0,0,0,0,0,0,0,0,0]}],[{"header":{"parameterUnit":"kt","parameterCategory":2,"dx":1,"dy":1,"la1":30.253999710083008,"la2":30.299108505249023,"lo1":-89.0895004272461,"lo2":-89.04439544677734,"nx":28,"ny":28,"refTime":"2022-11-01T21:00:00:Z","depth":0,"parameterNumber":2,"parameterNumberName":"V-component_of_WINDS"},"data":[-0.8719,-0.8789,-0.88,-0.8886,-0.891,-0.8972,-0.8998,-0.9032,-0.9063,-0.9139,-0.9184,-0.9204,-0.9241,-0.93,-0.9352,-0.936,-0.9384,-0.94,-0.9408,-0.9321,-0.9311,-0.93,-0.9286,-0.9403,-0.9403,-0.9498,-0.9499,-0.95,-0.8656,-0.8681,-0.8728,-0.8783,-0.8824,-0.8815,-0.8858,-0.8894,-0.895,-0.8988,-0.9033,-0.9101,-0.9157,-0.9189,-0.9246,-0.9282,-0.9283,-0.9297,-0.9298,-0.9305,-0.9211,-0.9195,-0.9295,-0.9295,-0.9295,-0.9295,-0.9295,-0.9295,-0.8545,-0.8586,-0.8625,-0.8677,-0.8707,-0.8744,-0.8786,-0.8808,-0.8856,-0.8915,-0.8919,-0.8983,-0.9025,-0.9099,-0.9127,-0.9179,-0.9167,-0.9187,-0.9194,-0.92,-0.9206,-0.9076,-0.9188,-0.9188,-0.9188,-0.9188,-0.9187,0,-0.8469,-0.8476,-0.8522,-0.8572,-0.861,-0.865,-0.8689,-0.8715,-0.8735,-0.8774,-0.8832,-0.8868,-0.8939,-0.8997,-0.9052,-0.9078,-0.9079,-0.9077,-0.9093,-0.9095,-0.909,-0.9099,-0.8951,-0.9076,-0.9075,-0.9074,-0.9074,-0.9073,-0.8363,-0.8407,-0.8454,-0.8485,-0.8509,-0.8558,-0.8591,-0.8605,-0.8639,-0.869,-0.8727,-0.8783,-0.883,-0.8922,-0.8951,-0.9005,-0.9007,-0.9054,-0.9016,-0.9015,-0.9015,-0.9015,-0.9022,-0.9064,-0.9065,-0.9066,-0.9067,0,-0.8303,-0.8321,-0.8394,-0.8436,-0.8448,-0.8495,-0.8532,-0.8574,-0.8591,-0.8652,-0.8667,-0.8696,-0.8754,-0.8775,-0.8845,-0.8856,-0.8939,-0.8936,-0.8925,-0.8928,-0.8976,-0.8974,-0.9119,-0.9141,-0.9013,-0.9014,-0.9015,0,-0.8223,-0.8281,-0.8306,-0.8347,-0.8412,-0.8425,-0.849,-0.8512,-0.8547,-0.8595,-0.8595,-0.864,-0.866,-0.8709,-0.8724,-0.8795,-0.8806,-0.8821,-0.8825,-0.8824,-0.8823,-0.8849,-0.8846,-0.8826,-0.8826,-0.8825,-0.8824,0,-0.8132,-0.8211,-0.8278,-0.83,-0.8351,-0.8382,-0.8405,-0.8445,-0.8477,-0.8522,-0.8544,-0.8595,-0.8625,-0.8665,-0.8685,-0.8658,-0.877,-0.8738,-0.8786,-0.8786,-0.8814,-0.8813,-0.8931,-0.8823,-0.8823,-0.8823,-0.8823,0,-0.8073,-0.8115,-0.8207,-0.8251,-0.8272,-0.8315,-0.8367,-0.8408,-0.845,-0.8462,-0.8498,-0.8502,-0.8562,-0.853,-0.8615,-0.8576,-0.8605,-0.8623,-0.8627,-0.8639,-0.8604,-0.8674,-0.8779,-0.8794,-0.8643,-0.8642,-0.864,0,-0.7966,-0.8063,-0.8075,-0.8163,-0.8211,-0.8209,-0.8258,-0.8294,-0.8314,-0.836,-0.8382,-0.8434,-0.8414,-0.8434,-0.8472,-0.8499,-0.8549,-0.8492,-0.8565,-0.8567,-0.8559,-0.8654,-0.8667,-0.8752,-0.8621,-0.8623,-0.8625,0,-0.7887,-0.7948,-0.7962,-0.7989,-0.8038,-0.8078,-0.8132,-0.8186,-0.8216,-0.8256,-0.8306,-0.8376,-0.8366,-0.8399,-0.8408,-0.8447,-0.8516,-0.8431,-0.8433,-0.845,-0.8612,-0.8624,-0.8638,-0.8514,-0.8516,-0.8518,-0.8609,0,-0.7802,-0.7852,-0.789,-0.7946,-0.798,-0.8034,-0.8057,-0.8089,-0.8095,-0.8115,-0.8186,-0.8222,-0.8279,-0.8299,-0.8305,-0.8385,-0.8377,-0.8365,-0.834,-0.84,-0.8431,-0.8443,-0.8291,-0.8291,-0.829,-0.829,0,0,-0.7699,-0.7771,-0.7782,-0.7836,-0.7866,-0.7864,-0.7921,-0.795,-0.8009,-0.8031,-0.8015,-0.8123,-0.8154,-0.8238,-0.8258,-0.828,-0.8298,-0.8276,-0.837,-0.8378,-0.8387,-0.842,-0.8432,-0.8289,-0.8289,-0.8288,-0.8288,0,-0.7673,-0.77,-0.7754,-0.7784,-0.7829,-0.7847,-0.786,-0.7905,-0.7921,-0.7989,-0.799,-0.8035,-0.8119,-0.8154,-0.8183,-0.8265,-0.8266,-0.8279,-0.8318,-0.8363,-0.8373,-0.8381,-0.8415,-0.8427,-0.8287,-0.8287,-0.8287,0,-0.7603,-0.7635,-0.7663,-0.7728,-0.7757,-0.7807,-0.7784,-0.7836,-0.7874,-0.7872,-0.7941,-0.7965,-0.8012,-0.8086,-0.8121,-0.8109,-0.8236,-0.8198,-0.8202,-0.8208,-0.8254,-0.8265,-0.8275,-0.8144,-0.8143,-0.8142,0,0,-0.7579,-0.7624,-0.7664,-0.7724,-0.7742,-0.777,-0.7798,-0.7807,-0.7847,-0.7864,-0.7895,-0.7936,-0.7986,-0.8019,-0.8067,-0.8145,-0.8159,-0.8179,-0.8186,-0.8192,-0.8201,-0.8248,-0.8259,-0.814,-0.814,-0.814,0,0,-0.7568,-0.7616,-0.7614,-0.7686,-0.7723,-0.7768,-0.7805,-0.7805,-0.7849,-0.7846,-0.7866,-0.7878,-0.7948,-0.7972,-0.7939,-0.806,-0.8033,-0.8041,-0.8042,-0.8051,-0.8058,-0.8053,-0.7924,0,0,0,0,0,-0.7555,-0.761,-0.7608,-0.7623,-0.7706,-0.7769,-0.778,-0.7796,-0.7777,-0.7806,-0.7832,-0.783,-0.7959,-0.793,-0.7946,-0.7984,-0.8111,-0.8116,-0.8121,-0.814,-0.8149,-0.8157,0,0,0,0,0,0,-0.7561,-0.7579,-0.7606,-0.7653,-0.7672,-0.7767,-0.7739,-0.7745,-0.7775,-0.7773,-0.7825,-0.7832,-0.7848,-0.7922,-0.7937,-0.7973,-0.792,-0.8113,-0.8118,-0.8121,-0.8143,-0.8151,-0.8157,0,0,0,0,0,-0.7566,-0.7581,-0.7709,-0.7652,-0.7669,-0.7704,-0.7737,-0.7742,-0.7765,-0.7806,-0.7813,-0.7775,-0.7849,-0.7862,-0.7931,-0.7966,-0.791,-0.7915,-0.8116,-0.8119,-0.8123,-0.8147,0,0,0,0,0,0,-0.7569,-0.7586,-0.7713,-0.7718,-0.7633,-0.7699,-0.7709,-0.7739,-0.7797,-0.7804,-0.7757,-0.7755,-0.785,-0.786,-0.787,-0.7963,-0.7902,-0.7907,-0.7911,-0.8119,-0.8121,-0.8124,0,0,0,0,0,0,-0.7579,-0.7591,-0.7716,-0.7689,-0.7692,-0.7694,-0.7704,-0.7765,-0.7798,-0.7745,-0.7745,-0.7756,-0.7835,-0.7859,-0.7866,-0.7961,-0.7896,-0.7901,-0.7904,-0.7907,-0.8121,-0.8123,0,0,0,0,0,0,-0.7584,-0.7595,-0.7688,-0.769,-0.7693,-0.7758,-0.7749,-0.7833,-0.7773,-0.7743,-0.7768,-0.7766,-0.7834,-0.7842,-0.7864,-0.7956,-0.796,-0.7896,-0.7899,-0.7902,-0.7903,0,0,0,0,0,0,0,-0.7589,-0.7511,-0.7679,-0.7691,-0.7693,-0.7771,-0.7772,-0.7774,-0.7773,-0.7771,-0.7769,-0.7767,-0.7866,-0.7872,-0.7878,-0.7951,0,0,-0.7895,-0.7898,0,0,0,0,0,0,0,0,-0.7507,-0.751,-0.7679,-0.768,-0.7681,-0.7771,-0.7772,-0.7774,-0.7772,-0.7771,-0.7769,-0.7768,-0.7868,-0.7872,-0.7877,0,0,0,0,0,0,0,0,0,0,0,0,0,0,0,-0.7679,-0.768,0,-0.7771,-0.7772,-0.7773,-0.7772,-0.7771,-0.777,-0.7768,-0.7869,-0.7873,-0.7877,0,0,0,0,0,0,0,0,0,0,0,0,0,0,0,0,0,0,0,0,0,0,0,0,0,0,0,0,0,0,0,0,0,0,0,0,0,0,0,0,0,0,0,0,0,0,0,0,0,0,0,0,0,0,0,0,0,0,0,0,0,0,0,0,0,0,0,0,0]}]]]